Showing default

COSMOS 2254, 22689

Orbit data source: Space-Track

COSMOS 2254, 22689 is a payload satellite owned by VKS (CIS) in LEO that was launched on Thu, 24 Jun 1993 UTC via a TSIKLON-3 launch vehicle from the Plesetsk Missile And Space Complex (PKMTR). Payload-class satellites include a variety of spacecraft equipped with specific instruments for various scientific and technological missions. These include communications satellites like Starlink; space stations such as the ISS; scientific satellites like the Hubble; Earth observation satellites from companies like Planet Labs, Umbra, and HawkEye 360; GPS; miniature CubeSats for education and research; and military/defense satellites.

Loading next visibility...
Identifier
22689, 1993-038C
Orbit
LEO
Country
Flag of CISCIS
Related business
Manufacturer
NPO PM
Mission
Defense Communications
Bus & Motor
STRELA-3, Unknown motor
Mass
225 kg wet, 225 kg dry
Launch date (UTC)
1993-06-24 (32 years ago)
Launch vehicle
TSIKLON-3
Launch site
Plesetsk Missile And Space Complex (PKMTR)
Object type
Payload
Rocket body
Debris
Shape & HBR
Cyl, 0.8 m
Radar Cross Section
1.257 m², Large (>1 m²)

Expand to show TLE details & history
Last TLE update: 9 hours ago

TLE from 9 hours ago
0 COSMOS 2254
1 22689U 93038C   25295.47714941  .00000040  00000-0  15966-3 0  9994
2 22689  82.5856 356.4411 0012966 128.3350 242.7898 12.64906294492089
Epoch: 2025-10-22T11:27Z
TLE epoch observation values (Epoch: 2025-10-22T11:27:05.709Z)
Latitude
10.85329°
Longitude
154.93971°
Altitude
1,409.37 km
Speed
7.154 km/s
True Right ascension
23h 51m 27s
True Declination
10° 47' 43"
Sunlit
Object was in full shadow at epoch
Visualization orbit readout
Latitude
Unknown
Longitude
Unknown
Altitude
Unknown
Speed
Unknown
Apparent Right ascension
Unknown
Apparent Declination
Unknown
Sunlit
N/A
Visualization observer readout
Local Sidereal Time
15:32:51
Azimuth
Unknown
Elevation
Unknown
Doppler factor
Unknown
Orbital elements
Apogee altitude
1,410.161 km
Perigee altitude
1,389.99 km
Semi-major axis
7,778.213 km
Eccentricity
0.0013
Inclination
82.5856°
RAAN
356.4411°
Arg. of periapsis
128.335°
True anomaly
242.65776°
Mean anomaly
242.7898°
Eccentric anomaly
242.72377°
Mean motion
3.16391 °/min
Orbital period
113.78 mins
BSTAR
0.00015966
Loading maneuver chart data...
Computing Atmospheric mass density...
Loading historical data...
Loading historical data...
Loading historical data...
Loading historical data...
Loading historical data...
Loading historical data...
Loading historical data...

Documentation

Showing up to 5 results
|